User: anonymous   Login
Location: SAPM � Hemmingford
(45.0500°N, 73.5833°W)
Time: 08:01:20
(UTC-05:00)
Language:

Iridium 75 - Orbit

View from above orbital plane
View from above orbital plane
View from above satellite
View from above satellite

Ground track
Ground track

The orbit data is extracted from the following two-line orbital elements,

1 25346U 98032E   17344.92452640 -.00000036 +00000-0 -19754-4 0  9994
2 25346 086.3959 150.2935 0001939 090.3199 269.8219 14.34215162024709
Epoch (UTC): 10 December 2017 22:11:19
Eccentricity: 0.0001939
inclination: 86.3959°
perigee height: 776 km
apogee height: 779 km
right ascension of ascending node: 150.2935°
argument of perigee: 90.3199°
revolutions per day: 14.34215162
mean anomaly at epoch: 269.8219°
orbit number at epoch: 2470

The dashed part of the orbit path shows where the satellite is in the earth's shadow,  

DLR